Precipitable_Water
1.23 1.10 1.07 1.03 0.98 0.97 1.00 1.04 1.03 1.07 1.11 1.09 1.05 1.01 1.01 1.03 1.06 1.08 1.14 1.14 1.13 1.00 0.91 0.90 0.91 0.91 0.91 0.92 0.91 0.92 0.93 0.93 0.97 0.98 0.99 0.98 1.00 1.01 1.03 1.04 1.02 1.04 1.04 1.02 1.04 1.03 1.02 1.01 1.00 1.02 1.06 1.01 1.00 1.00 0.99 0.98 0.96 0.94 0.93 0.90 0.83 0.80 0.75 0.70 0.66 0.67 0.77 0.89 0.85 0.82 0.85 0.82 0.73 0.72 0.68 0.72 0.78 0.84 0.89 0.90 0.93 0.95 1.00 1.04 1.07
1.37 1.22 1.14 1.07 1.02 1.04 1.05 1.07 1.07 1.11 1.11 1.11 1.05 1.03 1.03 1.05 1.06 1.09 1.12 1.14 1.06 0.92 0.89 0.90 0.90 0.90 0.90 0.92 0.94 0.95 0.95 0.97 0.99 0.99 0.97 0.95 0.94 0.98 0.98 1.00 1.00 1.01 1.02 0.99 1.01 1.02 1.01 0.97 0.95 0.96 1.00 0.99 0.99 0.98 0.99 0.98 0.95 0.93 0.92 0.92 0.90 0.88 0.91 0.82 0.77 0.74 0.69 0.79 0.81 0.86 0.82 0.84 0.71 0.74 0.71 0.72 0.78 0.86 0.88 0.91 0.94 0.99 1.00 1.05 1.07
1.42 1.32 1.21 1.14 1.09 1.09 1.09 1.09 1.12 1.13 1.12 1.11 1.07 1.06 1.05 1.04 1.06 1.07 1.11 1.13 1.05 0.94 0.89 0.89 0.88 0.90 0.91 0.94 0.96 0.97 0.98 0.98 1.01 1.00 0.99 0.96 0.93 0.94 0.97 0.98 0.97 0.96 0.97 0.99 1.00 1.02 0.98 0.94 0.90 0.91 0.95 0.94 0.95 0.98 1.01 0.99 0.99 0.95 0.93 0.96 0.95 0.95 0.96 0.93 0.84 0.77 0.75 0.75 0.82 0.79 0.78 0.78 0.74 0.72 0.78 0.82 0.86 0.90 0.91 0.94 0.95 0.99 1.04 1.07 1.08
1.46 1.40 1.33 1.21 1.14 1.13 1.12 1.14 1.13 1.13 1.11 1.10 1.07 1.07 1.04 1.02 1.07 1.09 1.13 1.15 1.02 0.92 0.91 0.90 0.91 0.91 0.91 0.93 0.95 0.97 0.98 1.00 1.01 1.02 1.00 0.98 0.95 0.93 0.95 0.97 0.98 0.99 1.00 1.01 1.02 1.01 0.96 0.89 0.85 0.87 0.91 0.90 0.92 0.95 0.97 0.99 0.98 0.97 0.97 1.00 0.99 0.97 0.98 0.99 0.96 0.90 0.87 0.81 0.82 0.81 0.82 0.79 0.77 0.80 0.82 0.87 0.88 0.88 0.92 0.97 1.02 1.01 1.03 1.08 1.10
1.56 1.47 1.36 1.23 1.20 1.19 1.16 1.14 1.11 1.11 1.11 1.10 1.07 1.05 1.04 1.03 1.06 1.10 1.16 1.15 1.00 0.91 0.91 0.93 0.91 0.91 0.89 0.91 0.93 0.94 0.96 0.98 0.98 0.99 1.00 1.01 0.99 0.98 0.99 1.00 1.02 1.03 1.05 1.05 1.05 1.00 0.92 0.86 0.86 0.89 0.91 0.89 0.90 0.91 0.93 0.94 0.98 1.00 0.98 0.98 0.97 0.98 1.00 0.99 0.97 0.97 0.92 0.85 0.83 0.85 0.87 0.85 0.84 0.82 0.84 0.83 0.86 0.89 0.90 0.90 0.95 0.99 1.02 1.08 1.12
1.55 1.45 1.39 1.28 1.30 1.28 1.16 1.11 1.11 1.12 1.12 1.10 1.07 1.05 1.06 1.04 1.08 1.18 1.23 1.10 0.96 0.91 0.92 0.93 0.91 0.89 0.90 0.91 0.92 0.93 0.95 0.95 0.95 0.95 0.98 1.02 1.02 1.02 1.02 1.03 1.05 1.07 1.09 1.09 1.05 0.99 0.93 0.92 0.92 0.93 0.92 0.90 0.90 0.93 0.94 0.95 0.98 0.98 0.97 0.97 0.98 0.99 0.97 0.96 0.97 0.96 0.95 0.91 0.88 0.82 0.84 0.81 0.78 0.79 0.85 0.90 0.87 0.84 0.84 0.88 0.92 0.97 0.98 0.99 1.06
1.66 1.60 1.44 1.38 1.36 1.26 1.14 1.11 1.13 1.15 1.15 1.12 1.09 1.08 1.09 1.13 1.20 1.18 1.15 1.00 0.91 0.90 0.92 0.90 0.90 0.88 0.89 0.91 0.91 0.92 0.93 0.93 0.93 0.95 0.99 1.01 1.01 1.01 1.02 1.04 1.07 1.10 1.10 1.09 1.06 1.02 0.99 0.98 0.96 0.95 0.93 0.93 0.93 0.93 0.95 0.96 0.97 0.96 0.96 0.95 0.96 0.95 0.93 0.93 0.94 0.95 0.95 0.91 0.88 0.86 0.81 0.82 0.81 0.78 0.87 0.94 0.93 0.91 0.85 0.83 0.82 0.90 0.96 0.97 0.98
1.57 1.57 1.52 1.42 1.36 1.26 1.17 1.11 1.14 1.19 1.19 1.12 1.10 1.13 1.17 1.23 1.24 1.11 1.04 0.93 0.90 0.91 0.89 0.86 0.87 0.89 0.90 0.92 0.94 0.95 0.95 0.95 0.98 1.00 1.01 1.02 1.02 1.02 1.03 1.04 1.07 1.09 1.09 1.08 1.07 1.05 1.04 1.02 0.98 0.97 0.97 0.98 0.99 0.99 1.00 0.97 0.98 0.94 0.95 0.96 0.96 0.95 0.92 0.93 0.93 0.93 0.91 0.88 0.84 0.80 0.81 0.78 0.80 0.86 0.91 0.92 0.88 0.87 0.92 0.89 0.81 0.82 0.87 0.95 1.00
1.51 1.52 1.48 1.42 1.38 1.33 1.24 1.20 1.24 1.24 1.19 1.13 1.12 1.16 1.26 1.28 1.14 1.08 0.97 0.93 0.96 0.95 0.92 0.90 0.90 0.92 0.94 0.96 0.97 0.98 0.99 1.01 1.02 1.02 1.01 1.01 1.03 1.02 1.04 1.05 1.05 1.04 1.04 1.05 1.06 1.07 1.07 1.04 1.01 1.00 1.00 1.02 1.05 1.06 1.05 1.03 0.98 0.93 0.94 0.98 0.96 0.95 0.93 0.93 0.92 0.90 0.86 0.83 0.79 0.82 0.81 0.79 0.80 0.80 0.81 0.83 0.83 0.84 0.92 0.96 0.90 0.90 0.91 0.90 0.95
1.48 1.48 1.45 1.39 1.37 1.35 1.28 1.22 1.24 1.25 1.17 1.15 1.14 1.23 1.32 1.24 1.13 1.01 0.95 0.95 0.97 0.97 0.93 0.93 0.95 0.97 0.99 1.00 1.01 1.01 1.03 1.04 1.03 1.03 1.04 1.04 1.06 1.08 1.08 1.06 1.03 1.02 1.01 1.02 1.03 1.06 1.07 1.06 1.05 1.03 1.02 1.04 1.05 1.06 1.05 1.04 1.03 1.01 0.98 0.97 0.96 0.94 0.92 0.89 0.86 0.85 0.83 0.81 0.81 0.81 0.78 0.78 0.79 0.81 0.82 0.86 0.92 0.96 0.95 0.94 0.88 0.91 0.92 0.90 0.92
1.48 1.45 1.43 1.47 1.49 1.50 1.34 1.27 1.34 1.28 1.18 1.18 1.30 1.36 1.29 1.12 1.04 0.94 0.93 0.96 0.97 0.96 0.94 0.95 0.99 1.04 1.06 1.05 1.03 1.05 1.05 1.04 1.05 1.09 1.11 1.13 1.14 1.13 1.10 1.07 1.07 1.06 1.04 1.02 1.00 1.02 1.05 1.06 1.06 1.06 1.05 1.05 1.06 1.06 1.05 1.04 1.02 1.01 1.01 1.01 1.01 0.97 0.91 0.85 0.84 0.85 0.86 0.86 0.88 0.85 0.83 0.81 0.82 0.85 0.85 0.88 0.93 0.95 0.96 0.96 0.93 0.92 0.88 0.83 0.77
1.51 1.50 1.49 1.54 1.56 1.48 1.35 1.34 1.36 1.29 1.24 1.29 1.37 1.33 1.15 1.08 0.98 0.92 0.92 0.95 0.97 0.98 0.96 0.99 1.06 1.09 1.09 1.08 1.08 1.08 1.07 1.08 1.08 1.12 1.17 1.17 1.17 1.15 1.11 1.08 1.08 1.07 1.07 1.06 1.05 1.04 1.04 1.05 1.07 1.09 1.07 1.06 1.05 1.05 1.04 1.03 1.01 1.01 1.00 1.00 1.00 1.01 1.01 0.95 0.88 0.87 0.90 0.87 0.84 0.86 0.86 0.84 0.84 0.86 0.86 0.90 0.93 0.96 0.97 0.97 0.95 0.93 0.90 0.87 0.87
1.56 1.57 1.60 1.63 1.59 1.57 1.47 1.41 1.39 1.32 1.29 1.38 1.38 1.19 1.12 1.04 0.94 0.91 0.91 0.97 1.00 0.98 1.00 1.04 1.06 1.08 1.09 1.10 1.11 1.11 1.09 1.11 1.14 1.17 1.18 1.19 1.17 1.14 1.11 1.10 1.09 1.08 1.08 1.07 1.05 1.05 1.06 1.06 1.06 1.08 1.08 1.07 1.06 1.06 1.04 1.01 1.01 1.01 1.00 1.00 1.00 1.01 1.00 1.00 1.01 0.96 0.95 0.92 0.89 0.88 0.89 0.89 0.86 0.87 0.93 0.96 1.02 0.96 0.96 0.94 0.95 0.95 0.94 0.91 0.91
1.65 1.74 1.80 1.81 1.76 1.70 1.52 1.46 1.45 1.42 1.41 1.36 1.27 1.17 1.08 0.98 0.92 0.94 0.96 1.00 1.01 1.01 1.03 1.03 1.05 1.07 1.09 1.10 1.13 1.14 1.13 1.17 1.20 1.19 1.18 1.17 1.15 1.13 1.12 1.12 1.11 1.10 1.08 1.07 1.05 1.05 1.07 1.07 1.05 1.04 1.06 1.07 1.06 1.04 1.02 1.01 0.99 0.98 0.97 0.97 0.98 0.99 0.99 0.98 0.97 0.99 1.02 0.99 0.94 0.88 0.92 0.96 0.91 0.95 1.01 1.05 1.01 0.96 0.96 0.94 0.96 0.94 0.93 0.92 0.97
1.67 1.67 1.66 1.67 1.68 1.64 1.58 1.50 1.41 1.38 1.40 1.38 1.30 1.16 1.06 0.98 0.96 0.97 0.98 0.97 0.99 0.99 1.01 1.02 1.04 1.06 1.09 1.14 1.15 1.13 1.13 1.16 1.20 1.21 1.20 1.17 1.15 1.14 1.14 1.13 1.12 1.11 1.09 1.08 1.06 1.06 1.08 1.09 1.08 1.05 1.05 1.04 1.03 1.02 1.01 1.01 1.00 0.97 0.96 0.95 0.96 0.97 0.96 0.95 0.96 0.99 1.01 1.02 1.00 0.99 1.00 1.02 1.03 1.05 1.08 1.09 1.06 1.05 1.05 1.01 1.01 1.01 1.02 1.05 1.03
1.62 1.65 1.62 1.51 1.57 1.65 1.65 1.48 1.40 1.37 1.43 1.43 1.32 1.17 1.04 0.99 0.98 1.01 1.01 1.01 1.03 1.06 1.09 1.10 1.09 1.08 1.12 1.16 1.16 1.14 1.16 1.16 1.15 1.16 1.18 1.16 1.16 1.15 1.16 1.14 1.12 1.10 1.08 1.09 1.08 1.09 1.10 1.09 1.07 1.06 1.02 0.97 0.97 0.99 1.03 1.04 1.00 0.96 0.94 0.95 0.95 0.95 0.94 0.98 1.03 1.06 1.08 1.07 1.07 1.06 1.06 1.07 1.09 1.11 1.11 1.09 1.09 1.09 1.08 1.08 1.08 1.04 0.99 0.93 0.89
1.59 1.67 1.74 1.77 1.71 1.71 1.63 1.50 1.47 1.50 1.46 1.34 1.22 1.11 1.03 1.03 1.06 1.08 1.05 1.05 1.06 1.08 1.08 1.09 1.11 1.10 1.11 1.15 1.16 1.14 1.13 1.13 1.11 1.11 1.13 1.16 1.16 1.17 1.18 1.15 1.11 1.09 1.09 1.12 1.12 1.10 1.08 1.08 1.08 1.03 0.97 0.93 0.95 0.98 1.00 1.00 0.96 0.95 0.94 0.93 0.92 0.92 0.91 0.98 1.07 1.10 1.10 1.09 1.09 1.08 1.08 1.08 1.09 1.11 1.11 1.11 1.11 1.09 1.08 1.03 0.97 0.99 0.96 0.91 0.90
1.70 1.69 1.60 1.60 1.67 1.67 1.66 1.57 1.48 1.42 1.33 1.25 1.20 1.14 1.11 1.12 1.10 1.13 1.09 1.10 1.10 1.10 1.11 1.13 1.16 1.18 1.17 1.16 1.17 1.14 1.12 1.13 1.12 1.12 1.11 1.11 1.16 1.18 1.18 1.13 1.08 1.07 1.11 1.17 1.16 1.10 1.07 1.08 1.07 1.01 0.96 0.94 0.94 0.92 0.93 0.95 0.94 0.94 0.93 0.90 0.89 0.88 0.90 1.01 1.05 1.06 1.07 1.05 1.04 1.04 1.04 1.05 1.09 1.11 1.11 1.10 1.09 1.09 1.06 0.96 0.98 1.01 0.97 0.97 0.92
1.52 1.59 1.60 1.60 1.61 1.62 1.63 1.55 1.41 1.32 1.27 1.24 1.22 1.18 1.14 1.11 1.15 1.21 1.21 1.22 1.21 1.23 1.22 1.20 1.22 1.24 1.23 1.20 1.18 1.15 1.13 1.13 1.11 1.09 1.11 1.12 1.15 1.18 1.16 1.09 1.04 1.05 1.09 1.11 1.13 1.07 1.05 1.06 1.04 1.01 0.96 0.93 0.90 0.89 0.91 0.94 0.93 0.93 0.93 0.92 0.88 0.87 0.94 1.02 1.00 0.97 0.96 0.94 0.94 0.97 0.97 1.03 1.08 1.10 1.09 1.09 1.08 1.08 1.09 1.07 1.08 1.04 0.98 0.99 1.00
1.34 1.40 1.59 1.64 1.65 1.62 1.57 1.46 1.38 1.29 1.25 1.24 1.23 1.16 1.15 1.18 1.21 1.22 1.25 1.26 1.24 1.28 1.31 1.31 1.28 1.27 1.26 1.21 1.16 1.15 1.11 1.11 1.12 1.11 1.10 1.13 1.17 1.20 1.19 1.10 1.05 1.10 1.14 1.11 1.05 1.02 1.02 1.02 1.01 1.00 0.98 0.95 0.92 0.91 0.91 0.92 0.93 0.96 0.96 0.91 0.89 0.89 1.02 1.01 1.00 0.98 0.93 0.91 0.90 0.93 0.94 0.99 1.04 1.07 1.07 1.08 1.08 1.09 1.10 1.10 1.10 1.08 1.04 1.03 1.05
1.35 1.42 1.45 1.57 1.59 1.59 1.50 1.43 1.35 1.30 1.28 1.24 1.19 1.15 1.17 1.18 1.21 1.21 1.21 1.23 1.24 1.28 1.31 1.30 1.26 1.24 1.23 1.18 1.15 1.16 1.15 1.11 1.15 1.14 1.10 1.10 1.14 1.16 1.17 1.16 1.14 1.14 1.11 1.07 1.06 1.01 0.98 0.98 1.00 1.01 0.98 0.96 0.94 0.94 0.93 0.95 0.97 0.95 0.93 0.93 0.99 1.03 1.04 0.98 0.97 0.95 0.90 0.89 0.89 0.89 0.92 0.96 1.00 1.03 1.05 1.07 1.08 1.08 1.09 1.10 1.12 1.12 1.11 1.09 1.08
1.39 1.41 1.42 1.44 1.55 1.56 1.49 1.41 1.34 1.29 1.28 1.21 1.14 1.13 1.20 1.24 1.22 1.20 1.22 1.23 1.24 1.27 1.30 1.24 1.17 1.14 1.13 1.13 1.11 1.12 1.16 1.16 1.20 1.22 1.12 1.09 1.10 1.14 1.15 1.19 1.21 1.14 1.09 1.05 1.10 1.06 1.00 0.98 0.99 1.00 0.99 0.97 0.95 0.93 0.92 0.91 0.92 0.92 0.94 1.02 1.06 1.04 1.01 0.99 0.95 0.90 0.86 0.84 0.83 0.83 0.86 0.91 0.94 0.98 1.02 1.05 1.07 1.08 1.09 1.11 1.13 1.14 1.18 1.21 1.18
1.36 1.37 1.40 1.38 1.42 1.51 1.48 1.39 1.32 1.26 1.20 1.18 1.17 1.16 1.19 1.17 1.17 1.22 1.23 1.22 1.22 1.21 1.16 1.11 1.06 1.04 1.04 1.05 1.07 1.10 1.12 1.16 1.19 1.15 1.10 1.07 1.09 1.12 1.17 1.19 1.18 1.15 1.13 1.11 1.09 1.07 1.03 1.01 1.03 1.02 1.00 0.98 0.96 0.94 0.91 0.90 0.91 0.94 1.00 1.02 1.04 1.04 1.02 0.96 0.89 0.83 0.80 0.78 0.77 0.77 0.81 0.87 0.91 0.94 0.99 1.02 1.06 1.08 1.10 1.14 1.16 1.16 1.19 1.25 1.30
1.33 1.39 1.38 1.34 1.39 1.40 1.38 1.37 1.29 1.22 1.18 1.19 1.16 1.12 1.10 1.11 1.12 1.13 1.17 1.17 1.14 1.07 1.03 1.03 1.01 0.97 0.94 0.96 1.01 1.05 1.09 1.08 1.05 1.06 1.05 1.05 1.07 1.09 1.11 1.14 1.15 1.12 1.16 1.14 1.11 1.07 1.05 1.05 1.04 1.02 1.00 1.00 1.00 0.98 0.95 0.94 0.97 0.98 0.98 1.02 1.05 1.04 0.98 0.89 0.82 0.78 0.75 0.73 0.72 0.73 0.77 0.84 0.89 0.93 0.97 1.03 1.07 1.09 1.11 1.16 1.17 1.16 1.19 1.26 1.32
1.37 1.37 1.38 1.36 1.31 1.36 1.41 1.34 1.19 1.15 1.16 1.15 1.09 1.07 1.07 1.10 1.08 1.13 1.15 1.12 1.09 1.04 1.00 0.98 0.93 0.91 0.91 0.90 0.92 0.98 1.03 1.04 1.04 1.04 1.03 1.01 1.02 1.05 1.09 1.14 1.20 1.21 1.15 1.15 1.14 1.12 1.10 1.08 1.04 1.02 1.01 1.00 0.99 1.00 1.00 1.01 0.99 0.97 0.99 1.03 1.06 0.99 0.91 0.83 0.78 0.74 0.70 0.68 0.69 0.72 0.75 0.81 0.86 0.92 0.99 1.05 1.10 1.11 1.11 1.13 1.16 1.17 1.21 1.29 1.33
1.29 1.32 1.28 1.28 1.31 1.38 1.30 1.18 1.13 1.12 1.12 1.14 1.12 1.12 1.12 1.14 1.13 1.15 1.14 1.11 1.06 0.99 0.93 0.91 0.89 0.87 0.84 0.85 0.87 0.91 0.97 1.01 1.02 1.03 1.04 1.06 1.07 1.10 1.09 1.13 1.13 1.12 1.14 1.13 1.12 1.12 1.10 1.05 1.02 1.02 1.01 1.00 1.00 1.01 1.02 1.02 0.99 0.95 0.99 1.03 1.00 0.94 0.88 0.81 0.76 0.71 0.68 0.67 0.67 0.69 0.73 0.79 0.85 0.91 0.97 1.04 1.07 1.04 1.06 1.08 1.11 1.11 1.16 1.22 1.25
1.26 1.24 1.25 1.29 1.36 1.33 1.18 1.07 1.06 1.09 1.12 1.15 1.18 1.20 1.20 1.18 1.15 1.13 1.10 1.03 0.99 0.95 0.92 0.89 0.85 0.82 0.79 0.82 0.86 0.90 0.94 0.97 0.99 1.01 1.05 1.06 1.08 1.08 1.11 1.10 1.13 1.09 1.06 1.07 1.07 1.07 1.05 1.02 1.02 1.04 1.04 1.04 1.05 1.07 1.03 0.98 0.97 0.98 0.99 0.98 0.95 0.91 0.86 0.81 0.76 0.72 0.69 0.67 0.67 0.70 0.74 0.79 0.85 0.88 0.88 0.95 1.00 1.03 1.07 1.09 1.08 1.07 1.12 1.18 1.21
1.21 1.18 1.20 1.29 1.24 1.13 1.09 1.17 1.17 1.15 1.15 1.14 1.14 1.16 1.18 1.17 1.12 1.07 1.03 1.01 0.96 0.93 0.90 0.86 0.82 0.81 0.81 0.85 0.89 0.91 0.91 0.94 0.96 0.99 1.03 1.04 1.05 1.07 1.10 1.09 1.06 1.03 1.00 1.02 1.04 1.05 1.05 1.04 1.05 1.06 1.05 1.01 1.02 1.03 1.00 0.98 0.97 0.97 0.96 0.94 0.91 0.88 0.85 0.82 0.79 0.75 0.72 0.71 0.70 0.72 0.74 0.75 0.75 0.78 0.82 0.88 0.97 1.01 1.06 1.06 1.04 1.03 1.07 1.11 1.13
1.18 1.24 1.30 1.16 1.06 1.16 1.26 1.19 1.12 1.10 1.11 1.14 1.15 1.12 1.10 1.09 1.07 1.07 1.10 1.08 1.04 0.95 0.87 0.84 0.85 0.88 0.90 0.90 0.89 0.88 0.89 0.90 0.96 1.06 1.06 1.07 1.06 1.05 1.03 1.01 1.01 1.02 1.06 1.05 1.04 1.06 1.04 0.99 0.98 0.97 0.96 0.94 0.93 0.95 0.97 0.96 0.94 0.95 0.95 0.91 0.86 0.83 0.80 0.77 0.73 0.70 0.69 0.68 0.67 0.66 0.66 0.66 0.67 0.72 0.76 0.82 0.93 0.99 1.04 1.04 1.03 1.02 1.06 1.07 1.06
1.07 1.18 1.17 1.12 1.15 1.19 1.19 1.20 1.14 1.07 1.03 1.01 1.03 1.05 1.09 1.10 1.10 1.06 1.04 1.05 1.03 0.99 0.94 0.88 0.92 0.94 0.93 0.96 0.97 0.91 0.89 0.94 1.02 1.04 1.06 1.06 1.06 1.05 1.05 1.05 1.04 1.02 1.03 1.03 1.03 0.98 0.95 0.94 0.92 0.91 0.90 0.90 0.91 0.93 0.94 0.93 0.92 0.92 0.92 0.87 0.82 0.79 0.76 0.73 0.70 0.69 0.68 0.66 0.64 0.62 0.60 0.60 0.61 0.66 0.71 0.78 0.89 0.98 1.01 1.02 1.01 1.03 1.03 1.03 1.01
1.08 1.08 1.08 1.09 1.15 1.17 1.20 1.17 1.12 1.06 1.04 1.03 1.02 1.01 1.01 1.07 1.08 1.07 1.04 1.02 1.00 0.99 0.96 0.95 0.96 0.95 0.93 0.90 0.95 0.97 0.97 0.98 0.98 0.99 1.00 1.01 1.01 1.01 1.01 1.01 1.01 1.01 1.00 0.99 0.95 0.92 0.90 0.90 0.91 0.89 0.89 0.89 0.89 0.90 0.91 0.90 0.89 0.89 0.87 0.83 0.78 0.75 0.72 0.69 0.67 0.66 0.64 0.60 0.59 0.57 0.55 0.55 0.57 0.63 0.68 0.74 0.83 0.93 0.99 1.01 1.02 1.01 1.04 1.06 1.01
1.11 1.14 1.17 1.21 1.29 1.36 1.28 1.19 1.11 1.03 1.02 1.02 1.00 0.97 0.96 0.94 0.98 1.01 1.01 1.00 1.00 0.99 0.96 0.94 0.93 0.92 0.91 0.91 0.89 0.89 0.91 0.93 0.95 0.95 0.96 0.97 0.97 0.98 0.99 0.99 1.00 0.98 0.97 0.97 0.92 0.90 0.91 0.90 0.88 0.86 0.87 0.87 0.88 0.89 0.88 0.87 0.87 0.86 0.83 0.78 0.74 0.72 0.69 0.65 0.64 0.61 0.57 0.55 0.53 0.51 0.50 0.50 0.52 0.57 0.64 0.70 0.80 0.90 0.96 0.98 0.97 1.01 1.04 1.06 1.03
1.04 1.09 1.14 1.24 1.33 1.33 1.23 1.10 1.03 1.00 0.97 0.96 0.95 0.96 0.94 0.92 0.88 0.88 0.94 0.99 0.99 0.98 0.95 0.93 0.92 0.91 0.91 0.90 0.91 0.91 0.91 0.93 0.93 0.94 0.94 0.95 0.96 0.97 0.97 0.97 0.97 0.97 0.97 0.94 0.90 0.90 0.91 0.89 0.87 0.87 0.88 0.87 0.88 0.87 0.86 0.84 0.83 0.81 0.79 0.75 0.70 0.68 0.66 0.63 0.60 0.56 0.53 0.51 0.50 0.48 0.49 0.49 0.50 0.51 0.56 0.65 0.74 0.82 0.91 0.95 0.97 1.02 1.04 1.02 1.01
1.07 1.08 1.09 1.13 1.14 1.10 1.04 1.01 0.98 0.98 0.98 0.96 0.95 0.94 0.93 0.93 0.93 0.93 0.92 0.92 0.94 0.96 0.96 0.93 0.92 0.93 0.92 0.92 0.91 0.91 0.92 0.92 0.92 0.93 0.94 0.95 0.96 0.96 0.95 0.96 0.97 0.99 0.97 0.93 0.91 0.88 0.87 0.85 0.85 0.86 0.87 0.88 0.87 0.86 0.83 0.81 0.78 0.75 0.73 0.71 0.69 0.65 0.61 0.59 0.54 0.52 0.51 0.48 0.46 0.46 0.47 0.48 0.49 0.48 0.49 0.55 0.66 0.78 0.87 0.94 0.96 0.97 0.98 1.01 1.01
1.06 1.09 1.08 1.05 1.00 0.98 0.98 0.97 0.95 0.95 0.95 0.94 0.96 0.96 0.97 0.99 1.00 0.98 0.96 0.93 0.89 0.86 0.86 0.89 0.94 0.95 0.93 0.91 0.90 0.90 0.91 0.92 0.93 0.94 0.95 0.95 0.95 0.94 0.94 0.92 0.90 0.92 0.93 0.91 0.87 0.85 0.84 0.84 0.85 0.86 0.85 0.82 0.80 0.77 0.73 0.71 0.68 0.66 0.66 0.65 0.63 0.60 0.57 0.54 0.52 0.51 0.49 0.46 0.43 0.42 0.44 0.45 0.46 0.48 0.48 0.50 0.55 0.67 0.80 0.89 0.92 0.95 0.98 0.98 1.01
1.07 1.05 1.01 0.99 0.97 0.94 0.93 0.94 0.95 0.96 0.97 1.00 1.03 1.04 1.04 1.03 1.01 1.01 1.00 0.97 0.91 0.86 0.86 0.89 0.92 0.95 0.93 0.92 0.91 0.91 0.92 0.93 0.93 0.93 0.92 0.92 0.90 0.89 0.82 0.81 0.82 0.83 0.84 0.86 0.86 0.87 0.88 0.87 0.85 0.83 0.81 0.77 0.73 0.69 0.66 0.64 0.63 0.63 0.61 0.59 0.58 0.56 0.54 0.52 0.50 0.47 0.44 0.41 0.38 0.38 0.39 0.41 0.44 0.45 0.47 0.50 0.52 0.59 0.74 0.84 0.89 0.92 0.97 0.99 1.01
1.02 1.00 0.98 0.98 0.97 0.96 0.96 0.98 1.00 1.03 1.05 1.06 1.06 1.05 1.04 1.03 1.03 1.01 0.98 0.94 0.89 0.88 0.87 0.89 0.90 0.91 0.93 0.94 0.95 0.94 0.94 0.93 0.92 0.90 0.89 0.90 0.92 0.92 0.87 0.85 0.82 0.83 0.82 0.84 0.85 0.85 0.84 0.83 0.81 0.77 0.71 0.66 0.63 0.61 0.60 0.59 0.60 0.59 0.58 0.55 0.53 0.52 0.51 0.49 0.45 0.41 0.38 0.36 0.35 0.36 0.36 0.37 0.40 0.42 0.44 0.45 0.48 0.53 0.66 0.80 0.87 0.90 0.93 0.98 1.00
1.04 1.04 1.02 1.03 1.01 1.01 1.01 1.03 1.06 1.07 1.05 1.04 1.02 1.00 1.01 1.02 1.01 0.98 0.94 0.90 0.89 0.88 0.88 0.89 0.91 0.88 0.86 0.89 0.98 0.94 0.92 0.92 0.91 0.89 0.90 0.90 0.89 0.88 0.86 0.84 0.83 0.82 0.82 0.83 0.83 0.81 0.79 0.77 0.73 0.69 0.65 0.62 0.59 0.58 0.58 0.57 0.56 0.55 0.53 0.50 0.49 0.48 0.46 0.43 0.39 0.37 0.36 0.35 0.34 0.35 0.36 0.36 0.37 0.39 0.40 0.42 0.45 0.49 0.57 0.71 0.81 0.85 0.89 0.95 0.98
1.09 1.13 1.11 1.07 1.05 1.06 1.11 1.11 1.09 1.04 1.00 0.98 0.97 0.97 0.96 0.95 0.94 0.92 0.90 0.90 0.90 0.91 0.91 0.91 0.91 0.89 0.90 0.94 0.92 0.93 0.89 0.86 0.84 0.83 0.84 0.84 0.84 0.83 0.82 0.81 0.81 0.81 0.81 0.80 0.80 0.78 0.76 0.73 0.70 0.67 0.63 0.59 0.57 0.56 0.55 0.54 0.52 0.50 0.47 0.45 0.43 0.41 0.37 0.34 0.33 0.34 0.34 0.33 0.33 0.34 0.34 0.34 0.35 0.36 0.36 0.37 0.41 0.47 0.52 0.62 0.74 0.80 0.83 0.88 0.93
1.01 1.00 0.99 0.99 1.02 1.07 1.10 1.07 1.02 0.97 0.95 0.92 0.93 0.94 0.94 0.92 0.90 0.89 0.90 0.90 0.90 0.90 0.91 0.90 0.90 0.91 0.94 0.94 0.92 0.90 0.84 0.82 0.82 0.83 0.81 0.79 0.78 0.80 0.80 0.79 0.78 0.78 0.78 0.78 0.77 0.76 0.74 0.72 0.70 0.66 0.62 0.58 0.55 0.54 0.53 0.51 0.48 0.45 0.42 0.40 0.38 0.34 0.31 0.31 0.32 0.32 0.31 0.30 0.29 0.30 0.30 0.31 0.32 0.32 0.32 0.33 0.38 0.45 0.49 0.55 0.64 0.74 0.80 0.84 0.90
0.98 1.01 1.03 1.05 1.06 1.05 1.03 1.00 0.97 0.95 0.95 0.94 0.93 0.92 0.90 0.91 0.91 0.92 0.91 0.91 0.91 0.91 0.91 0.92 0.92 0.94 0.95 0.94 0.93 0.91 0.86 0.83 0.82 0.82 0.80 0.79 0.79 0.79 0.79 0.79 0.79 0.77 0.76 0.74 0.72 0.71 0.69 0.67 0.65 0.62 0.60 0.58 0.56 0.53 0.49 0.45 0.42 0.39 0.37 0.35 0.32 0.30 0.29 0.29 0.30 0.29 0.29 0.27 0.26 0.26 0.28 0.29 0.30 0.29 0.28 0.31 0.36 0.41 0.47 0.53 0.59 0.66 0.74 0.80 0.85
1.02 1.02 1.02 1.02 1.02 1.00 0.98 0.96 0.95 0.95 0.93 0.91 0.90 0.90 0.91 0.92 0.92 0.91 0.91 0.91 0.91 0.90 0.88 0.88 0.91 0.93 0.94 0.94 0.90 0.88 0.84 0.82 0.81 0.79 0.78 0.78 0.78 0.78 0.78 0.78 0.78 0.77 0.75 0.72 0.70 0.67 0.65 0.62 0.60 0.58 0.57 0.56 0.53 0.48 0.43 0.38 0.35 0.33 0.31 0.29 0.26 0.25 0.26 0.26 0.28 0.28 0.28 0.26 0.25 0.25 0.27 0.28 0.28 0.28 0.28 0.29 0.31 0.35 0.40 0.47 0.53 0.59 0.66 0.73 0.79
1.06 1.04 1.03 1.01 0.98 0.94 0.91 0.90 0.92 0.90 0.90 0.90 0.90 0.93 0.93 0.92 0.91 0.91 0.90 0.90 0.90 0.89 0.86 0.85 0.87 0.89 0.89 0.87 0.84 0.82 0.81 0.79 0.78 0.77 0.76 0.76 0.76 0.77 0.76 0.76 0.76 0.75 0.73 0.71 0.68 0.64 0.60 0.57 0.54 0.53 0.50 0.47 0.44 0.40 0.34 0.30 0.29 0.26 0.25 0.24 0.24 0.24 0.24 0.26 0.27 0.28 0.28 0.27 0.25 0.25 0.26 0.27 0.27 0.26 0.26 0.26 0.27 0.28 0.31 0.37 0.43 0.51 0.59 0.66 0.72
1.04 1.01 0.97 0.93 0.92 0.92 0.92 0.92 0.91 0.91 0.91 0.92 0.92 0.92 0.91 0.90 0.90 0.89 0.89 0.88 0.88 0.88 0.86 0.85 0.85 0.84 0.82 0.81 0.79 0.77 0.76 0.75 0.75 0.74 0.74 0.74 0.73 0.73 0.73 0.73 0.72 0.70 0.68 0.65 0.62 0.58 0.54 0.50 0.48 0.46 0.44 0.42 0.39 0.35 0.29 0.24 0.21 0.19 0.20 0.22 0.23 0.25 0.25 0.26 0.27 0.27 0.28 0.27 0.27 0.25 0.25 0.25 0.26 0.26 0.26 0.25 0.25 0.25 0.26 0.28 0.33 0.40 0.49 0.56 0.64
0.94 0.91 0.90 0.90 0.91 0.91 0.91 0.93 0.92 0.91 0.91 0.91 0.89 0.89 0.88 0.87 0.86 0.87 0.87 0.86 0.85 0.84 0.83 0.82 0.82 0.79 0.76 0.74 0.72 0.70 0.70 0.71 0.72 0.72 0.71 0.70 0.69 0.68 0.68 0.67 0.64 0.62 0.59 0.56 0.53 0.50 0.48 0.46 0.44 0.43 0.41 0.37 0.33 0.27 0.21 0.18 0.16 0.16 0.18 0.21 0.24 0.25 0.27 0.29 0.30 0.31 0.31 0.30 0.29 0.28 0.27 0.26 0.25 0.25 0.25 0.25 0.25 0.25 0.24 0.25 0.26 0.30 0.35 0.41 0.49
0.95 0.93 0.92 0.90 0.90 0.89 0.88 0.88 0.89 0.87 0.85 0.84 0.83 0.83 0.84 0.84 0.84 0.83 0.82 0.80 0.79 0.76 0.74 0.73 0.71 0.68 0.66 0.64 0.64 0.63 0.61 0.59 0.58 0.58 0.59 0.59 0.59 0.60 0.61 0.60 0.59 0.56 0.53 0.50 0.48 0.46 0.45 0.43 0.40 0.37 0.33 0.31 0.28 0.22 0.17 0.15 0.15 0.16 0.18 0.20 0.24 0.26 0.28 0.31 0.32 0.32 0.32 0.31 0.31 0.30 0.29 0.27 0.27 0.27 0.27 0.26 0.25 0.25 0.24 0.25 0.26 0.27 0.29 0.32 0.36
0.95 0.93 0.92 0.90 0.88 0.86 0.86 0.85 0.84 0.82 0.82 0.80 0.80 0.79 0.78 0.77 0.76 0.74 0.71 0.68 0.66 0.65 0.63 0.64 0.64 0.63 0.63 0.61 0.59 0.57 0.57 0.56 0.55 0.53 0.53 0.53 0.52 0.51 0.52 0.52 0.52 0.49 0.48 0.47 0.45 0.44 0.41 0.38 0.34 0.31 0.29 0.26 0.23 0.20 0.17 0.16 0.16 0.17 0.18 0.20 0.22 0.25 0.27 0.30 0.32 0.32 0.32 0.32 0.32 0.31 0.30 0.28 0.27 0.27 0.28 0.27 0.25 0.25 0.25 0.25 0.25 0.25 0.26 0.28 0.30
0.95 0.93 0.91 0.90 0.88 0.85 0.85 0.83 0.80 0.80 0.77 0.76 0.74 0.73 0.71 0.69 0.67 0.65 0.64 0.63 0.63 0.63 0.62 0.63 0.63 0.63 0.62 0.61 0.61 0.60 0.59 0.57 0.56 0.54 0.53 0.53 0.51 0.47 0.46 0.47 0.47 0.46 0.46 0.44 0.43 0.41 0.38 0.35 0.32 0.29 0.26 0.25 0.23 0.22 0.21 0.21 0.20 0.19 0.18 0.18 0.20 0.24 0.26 0.29 0.30 0.31 0.31 0.30 0.30 0.30 0.30 0.29 0.28 0.28 0.28 0.28 0.27 0.26 0.25 0.24 0.26 0.26 0.26 0.26 0.27
0.93 0.92 0.90 0.89 0.88 0.87 0.86 0.84 0.84 0.81 0.79 0.77 0.75 0.73 0.71 0.69 0.67 0.66 0.65 0.65 0.64 0.64 0.64 0.63 0.64 0.64 0.64 0.64 0.64 0.63 0.61 0.59 0.56 0.55 0.54 0.53 0.52 0.49 0.46 0.43 0.44 0.45 0.44 0.41 0.40 0.37 0.35 0.33 0.31 0.27 0.25 0.25 0.25 0.25 0.25 0.25 0.24 0.23 0.20 0.18 0.18 0.21 0.24 0.27 0.29 0.29 0.29 0.29 0.28 0.28 0.28 0.28 0.27 0.26 0.28 0.28 0.28 0.28 0.27 0.26 0.26 0.26 0.25 0.25 0.25
0.88 0.90 0.91 0.92 0.91 0.91 0.91 0.89 0.85 0.81 0.79 0.76 0.73 0.71 0.71 0.70 0.69 0.68 0.68 0.68 0.67 0.67 0.67 0.67 0.66 0.66 0.65 0.64 0.64 0.63 0.62 0.59 0.57 0.56 0.55 0.54 0.53 0.51 0.48 0.45 0.43 0.41 0.40 0.38 0.37 0.35 0.33 0.31 0.29 0.26 0.25 0.25 0.26 0.26 0.26 0.26 0.25 0.24 0.23 0.21 0.18 0.18 0.22 0.26 0.28 0.28 0.28 0.28 0.26 0.26 0.27 0.26 0.25 0.25 0.27 0.28 0.28 0.28 0.27 0.26 0.27 0.26 0.25 0.24 0.25
0.86 0.87 0.87 0.86 0.85 0.83 0.80 0.77 0.75 0.74 0.73 0.72 0.70 0.70 0.69 0.69 0.69 0.69 0.67 0.66 0.65 0.65 0.65 0.65 0.65 0.65 0.65 0.65 0.64 0.63 0.62 0.61 0.59 0.57 0.56 0.55 0.54 0.52 0.48 0.45 0.42 0.40 0.39 0.38 0.36 0.33 0.31 0.29 0.27 0.26 0.26 0.26 0.26 0.27 0.26 0.26 0.26 0.26 0.25 0.24 0.21 0.18 0.19 0.24 0.27 0.28 0.28 0.27 0.26 0.26 0.26 0.25 0.24 0.24 0.25 0.28 0.28 0.27 0.27 0.27 0.27 0.26 0.25 0.25 0.25
Wind_Speed
22 22 22 21 21 21 20 19 19 19 18 18 18 18 18 18 18 18 18 18 18 17 17 17 18 18 18 18 18 19 19 19 19 19 20 21 21 21 21 21 21 21 21 22 22 22 22 22 22 22 22 22 22 23 23 24 25 24 24 24 24 25 25 24 24 25 25 26 27 27 28 28 28 29 30 31 31 32 32 33 34 34 35 36 37
22 22 22 22 22 22 21 20 20 20 19 19 19 19 19 19 19 19 19 19 18 18 18 18 18 18 18 19 19 19 20 20 20 20 21 22 22 22 22 22 22 22 22 22 22 22 21 21 22 22 22 22 23 23 24 25 25 25 25 25 25 26 25 25 25 25 26 26 27 28 28 28 28 29 30 31 31 32 33 33 33 34 35 36 37
23 23 23 23 23 23 22 21 21 20 20 20 20 20 20 19 19 20 20 19 19 18 18 18 18 19 19 19 20 20 20 21 21 22 22 22 23 23 23 22 22 22 22 22 22 22 21 21 22 23 22 23 23 24 24 25 25 25 26 26 26 26 26 26 26 26 26 26 27 28 28 28 28 29 30 31 31 32 32 32 33 33 34 35 36
23 23 24 24 23 23 23 22 22 21 21 20 20 20 20 20 20 20 20 20 19 19 19 19 19 20 20 20 20 21 21 21 22 22 23 23 23 23 23 23 22 22 22 22 22 22 21 22 23 23 23 23 24 24 24 25 25 26 26 27 27 27 27 26 26 26 26 27 27 27 28 28 28 29 30 30 31 31 32 32 32 33 34 35 36
24 24 24 24 24 24 23 23 23 22 22 21 21 20 21 20 20 21 21 20 19 19 20 20 20 20 21 21 21 21 21 22 22 23 23 23 23 23 23 23 22 22 22 22 22 22 21 22 23 23 23 23 24 24 25 25 25 26 26 27 27 27 27 26 26 27 27 27 27 27 28 28 28 29 30 30 30 31 31 32 32 32 33 34 35
25 25 24 25 25 24 24 24 24 23 23 22 21 21 21 20 20 21 20 19 19 20 20 20 20 21 21 21 21 21 22 22 22 23 23 23 23 23 23 23 22 22 22 22 22 22 22 22 23 23 23 24 24 25 25 25 25 26 27 27 27 27 27 27 27 27 27 28 28 28 28 28 29 29 30 30 30 31 31 31 31 31 33 34 35
25 25 25 25 25 25 25 25 24 24 23 22 22 22 21 21 22 21 19 19 19 20 20 20 21 21 21 21 21 22 22 22 23 24 23 23 22 23 24 24 23 23 23 23 23 22 22 23 24 24 24 25 25 25 25 25 26 26 27 27 27 27 27 27 27 27 28 28 28 28 28 28 29 30 30 30 30 30 30 31 31 31 32 33 34
25 26 26 26 26 26 25 25 25 24 23 23 23 22 22 22 22 19 18 19 20 20 21 21 21 21 21 21 22 22 23 23 23 23 23 23 23 24 24 24 23 23 23 23 23 23 23 24 24 25 25 26 25 25 26 26 26 27 28 28 27 27 27 27 27 27 28 28 29 29 29 29 29 30 30 30 30 30 30 30 31 31 32 33 34
26 27 27 27 27 27 26 26 25 24 24 23 23 22 23 23 20 19 19 20 20 21 21 21 21 21 22 22 23 23 23 24 24 24 23 24 24 25 24 24 23 23 23 23 24 24 24 25 25 26 27 26 26 26 26 27 27 28 28 28 27 27 27 28 28 28 28 29 29 29 29 29 29 30 30 30 30 31 31 30 31 31 32 33 34
27 28 28 28 28 27 27 26 25 24 24 24 24 24 23 21 20 20 20 20 21 22 22 22 22 22 23 23 23 23 24 25 25 25 24 24 24 24 24 24 23 23 23 24 25 25 25 25 26 27 28 27 27 27 27 27 28 28 28 27 27 27 27 28 28 28 28 29 29 29 29 29 29 30 30 31 31 32 32 31 31 32 32 32 33
29 30 30 29 29 27 26 26 25 24 24 24 24 24 22 21 21 21 21 21 22 22 22 22 22 23 23 23 23 23 24 25 25 25 25 24 24 24 25 24 24 24 25 26 26 26 26 26 27 28 28 28 27 27 27 27 28 28 28 28 27 27 27 28 28 28 28 29 29 30 29 30 30 30 31 32 32 32 32 32 32 32 31 31 32
30 31 31 31 29 28 26 26 25 24 24 24 24 23 22 22 22 22 22 22 23 23 23 23 23 23 23 23 23 24 25 25 26 25 25 24 25 26 26 26 25 25 26 27 27 27 26 27 28 28 28 28 28 28 27 27 28 28 28 28 28 27 27 28 28 29 29 29 30 30 30 30 30 31 31 32 32 32 32 32 32 32 31 31 31
32 33 32 31 29 28 26 25 24 23 23 24 24 23 22 23 23 23 23 23 23 24 24 23 24 24 24 23 24 25 25 26 26 26 26 27 27 27 27 27 27 27 27 28 27 27 27 27 28 28 28 29 29 28 27 27 28 28 28 28 28 28 28 28 29 29 29 29 30 30 30 30 30 31 32 32 32 33 33 33 32 32 32 32 32
31 30 28 27 26 26 25 24 22 22 23 23 23 23 23 23 24 24 24 24 24 24 24 24 25 25 25 25 25 26 26 26 26 27 28 28 29 28 28 28 28 28 28 28 28 28 28 28 28 29 29 30 29 29 28 27 28 28 28 28 28 28 28 28 29 29 29 29 30 30 30 30 31 32 32 32 32 33 34 34 33 33 33 33 33
29 28 27 26 26 27 27 25 24 24 24 24 23 23 24 24 24 24 24 24 25 25 26 26 27 27 27 27 27 28 28 28 28 29 29 29 29 29 28 28 28 28 29 30 29 29 29 28 28 29 30 31 30 29 28 28 28 28 28 28 28 28 28 28 28 28 28 29 29 30 30 31 31 32 32 31 32 33 34 34 34 34 34 34 34
30 29 28 27 27 28 29 27 25 25 24 23 23 24 25 25 25 24 25 25 26 26 27 27 28 28 28 28 29 30 30 31 31 31 31 30 30 30 29 28 28 29 30 30 30 29 29 29 29 30 31 31 30 30 28 28 28 28 29 28 28 28 28 28 28 28 29 29 29 30 30 31 32 32 32 32 32 33 34 34 34 34 34 34 33
30 29 27 26 26 27 27 26 25 24 22 22 23 25 26 25 24 24 25 25 26 27 27 28 28 28 29 29 30 31 31 32 32 32 32 32 31 31 30 29 29 29 30 31 31 30 30 30 30 30 31 31 31 30 29 28 28 28 28 28 28 28 29 28 28 28 29 29 29 30 31 31 32 32 32 32 32 33 33 33 34 34 33 33 33
29 28 27 27 27 26 26 25 24 23 23 23 24 25 25 24 24 24 25 26 27 27 28 28 28 29 29 30 31 31 32 33 33 32 32 32 32 32 31 30 30 30 30 30 31 31 31 30 30 30 31 31 31 30 28 28 28 28 28 28 28 29 29 28 28 28 28 29 29 30 30 30 30 30 30 31 32 32 32 33 34 34 34 33 32
28 27 27 28 28 27 26 25 24 24 24 24 23 24 24 23 24 25 26 27 27 28 28 29 29 30 30 31 32 33 33 33 33 33 33 32 32 32 31 30 30 30 30 30 31 32 31 30 30 31 31 32 31 29 28 27 27 27 27 28 28 28 28 27 27 28 28 28 29 29 29 29 29 29 29 30 31 32 33 33 34 34 34 34 33
26 26 26 26 26 26 26 26 25 24 23 22 22 23 23 23 24 25 26 27 27 28 29 30 30 30 31 32 33 34 34 34 33 33 33 33 33 32 31 31 31 31 31 32 32 31 30 30 30 31 31 31 30 28 27 27 27 27 27 28 28 27 27 26 27 27 27 27 28 28 28 28 28 28 29 30 32 32 33 33 33 34 35 35 33
25 24 23 23 23 24 25 25 24 22 21 21 21 22 23 23 24 25 26 26 27 28 29 30 30 31 32 33 34 35 35 35 34 34 34 34 33 32 32 32 32 32 32 32 31 30 30 29 30 30 31 30 29 28 27 27 27 28 28 27 27 26 26 26 26 26 26 26 27 27 27 27 27 28 30 31 32 32 33 34 34 33 34 34 33
23 22 22 23 24 24 24 24 22 21 20 20 20 22 23 24 25 25 25 26 27 29 30 30 31 32 33 33 34 35 35 35 34 34 34 33 32 32 32 32 33 33 32 30 29 29 29 30 30 30 30 29 28 28 28 28 28 28 27 26 26 26 26 25 26 25 25 25 26 26 26 26 27 28 30 31 32 32 33 34 34 33 33 31 31
22 21 21 24 24 23 23 23 22 21 20 19 20 23 24 24 24 25 25 26 27 28 29 30 31 32 33 34 34 34 34 34 33 33 32 31 31 31 32 33 33 31 29 29 29 30 30 30 30 30 29 29 29 28 28 28 27 26 26 25 25 25 25 25 25 24 24 25 25 25 26 26 27 29 30 31 31 32 33 34 33 33 32 30 29
21 20 21 23 23 23 23 23 22 20 20 21 22 24 24 24 25 25 25 25 27 28 30 31 32 33 34 34 33 33 33 32 32 32 31 31 31 32 33 33 31 28 28 29 30 30 30 30 30 30 30 30 30 29 28 26 25 25 25 24 24 24 24 24 23 23 24 24 24 25 25 26 27 28 30 31 31 31 33 33 32 32 31 29 27
20 20 21 23 24 24 24 23 22 22 23 24 25 24 24 25 25 25 25 26 28 29 31 31 32 33 33 33 32 32 32 31 31 31 31 31 31 31 32 30 28 28 29 30 30 30 30 31 30 30 31 31 30 28 26 24 24 24 24 24 23 23 23 23 22 22 23 23 24 24 25 25 27 28 29 31 31 31 32 32 31 30 29 26 23
20 21 21 22 23 23 23 23 24 25 25 25 25 25 25 25 25 25 26 27 29 31 31 32 32 32 32 32 31 31 31 30 30 30 31 31 31 30 29 28 27 28 29 29 30 30 31 31 30 30 30 30 28 26 24 23 23 23 23 22 22 22 22 22 22 22 23 23 24 24 24 25 26 27 29 30 30 30 31 31 30 29 27 24 20
20 20 21 22 22 23 23 24 24 24 24 24 25 25 25 25 25 26 28 29 30 31 32 32 32 32 31 31 31 30 30 30 31 31 31 30 30 29 28 27 27 27 28 29 29 29 30 30 29 29 28 27 25 23 22 22 22 22 22 21 21 21 21 21 21 22 22 23 23 24 24 25 25 26 27 28 29 29 29 29 28 27 26 23 19
19 20 21 22 23 23 23 23 23 23 23 25 25 25 25 25 26 28 30 31 31 31 32 32 32 31 31 31 30 30 30 30 31 30 30 29 28 27 26 26 26 27 27 27 28 28 28 28 27 27 26 24 23 22 21 21 22 21 21 21 21 21 21 21 21 22 22 22 23 23 24 24 25 25 26 27 28 28 28 27 26 26 25 22 18
19 20 21 21 21 22 23 23 23 23 24 24 25 25 25 26 29 30 30 31 31 32 32 32 31 31 30 30 29 30 30 30 30 29 29 28 27 26 25 25 26 26 26 26 26 26 26 25 24 24 24 23 22 21 21 21 21 21 20 20 20 20 21 21 21 21 21 21 22 23 23 23 24 24 24 25 26 26 26 25 25 24 24 22 18
20 20 20 20 21 22 23 23 23 23 24 24 25 26 27 28 29 30 30 31 31 32 31 31 31 30 30 29 29 30 30 30 29 28 27 26 25 25 25 25 26 25 25 25 25 24 24 23 23 23 22 21 21 20 20 21 21 20 20 19 20 20 20 20 20 20 20 21 21 22 22 22 23 23 23 23 25 25 24 24 23 23 23 21 17
21 21 21 22 23 23 23 23 24 24 25 26 26 27 28 29 29 30 30 30 31 31 31 31 30 30 29 29 29 29 29 29 28 27 26 25 24 25 25 25 25 25 24 24 24 23 22 21 21 21 21 20 20 19 20 20 20 19 19 19 19 20 20 19 19 19 20 20 20 21 21 21 22 22 21 22 23 24 23 22 21 22 22 20 16
20 20 21 22 22 23 24 25 25 26 26 27 28 28 29 29 29 30 30 30 30 30 30 30 29 29 29 29 29 29 28 27 26 25 25 24 24 24 24 24 24 23 23 23 22 21 21 21 21 20 20 19 19 19 19 19 19 19 19 19 19 19 19 19 19 19 19 20 20 20 20 21 21 21 20 20 21 22 22 21 20 20 21 20 16
19 21 22 23 24 25 25 26 26 27 27 28 28 29 29 30 30 30 29 29 29 29 29 29 29 29 29 29 29 28 27 26 25 24 24 24 24 23 23 22 22 22 22 22 21 20 20 20 19 19 19 18 18 18 18 18 18 18 18 18 18 18 18 18 18 18 19 19 19 19 19 20 20 20 20 20 19 20 20 20 18 18 19 19 16
23 24 24 24 24 25 25 26 26 27 27 28 29 29 30 30 30 29 29 29 29 29 29 30 29 29 29 29 28 27 25 24 23 23 23 23 23 22 21 21 21 21 21 21 20 19 18 18 18 18 18 17 17 18 18 18 18 18 18 18 17 17 17 17 17 18 18 18 18 18 18 18 19 19 19 19 18 18 18 18 17 16 17 18 16
26 25 24 24 24 24 25 25 26 27 28 28 29 29 29 29 29 29 29 29 29 30 30 30 30 30 29 28 27 25 24 23 22 22 22 22 22 21 20 20 20 20 20 19 19 18 17 18 18 18 17 17 17 18 18 17 17 17 17 17 17 17 17 17 17 17 18 18 18 17 17 17 18 18 18 18 18 17 17 17 16 15 15 15 15
25 24 24 25 25 25 26 26 27 28 28 28 28 29 29 29 29 29 30 30 31 31 31 31 30 29 28 27 25 24 22 21 21 21 21 21 20 20 20 19 19 19 18 18 18 17 17 17 18 17 17 17 17 17 17 17 16 16 16 16 16 16 16 17 17 17 17 17 17 16 16 16 17 17 17 17 17 16 15 15 15 14 14 14 13
25 25 25 25 25 26 26 27 27 28 28 28 29 29 29 29 30 30 31 32 32 31 31 30 29 27 26 25 23 22 21 20 20 20 20 20 20 19 19 19 18 17 17 17 17 18 18 17 17 17 17 17 17 16 16 16 16 15 15 15 16 16 16 17 17 17 16 16 15 15 15 15 15 16 16 16 17 16 15 14 14 14 14 13 12
25 26 25 25 26 27 27 27 28 28 29 29 30 30 30 31 31 31 32 32 31 31 30 29 27 26 24 23 22 20 20 20 20 20 20 20 19 19 18 18 17 17 17 17 17 18 18 17 17 17 17 16 16 16 16 15 15 15 15 15 15 15 16 16 15 15 14 14 14 14 14 14 14 15 15 15 16 16 15 14 13 12 13 13 12
24 25 25 25 26 27 28 28 28 29 29 30 30 31 31 31 31 32 32 31 30 30 28 27 26 24 23 22 21 20 19 19 20 20 20 19 19 18 18 18 18 17 17 17 17 17 17 17 17 17 16 16 16 15 15 15 14 14 14 14 14 14 14 14 13 13 13 13 13 13 13 13 13 14 14 14 15 15 15 14 12 11 11 11 11
24 25 26 26 26 27 27 27 28 29 29 30 31 31 31 31 31 31 31 30 29 27 26 25 24 23 22 21 20 19 19 20 20 20 20 19 19 19 18 18 18 17 17 17 17 16 16 16 16 16 16 15 15 15 15 15 14 14 14 14 13 13 12 12 11 11 11 12 12 12 12 13 13 13 13 14 14 14 14 14 13 11 10 10 10
25 26 26 26 26 26 27 28 28 29 29 30 30 30 30 30 30 29 28 27 26 25 24 23 22 21 20 20 19 19 20 20 20 20 20 20 19 19 19 18 18 17 17 16 16 16 16 16 16 16 15 15 15 15 15 14 14 13 13 13 12 11 11 10 10 10 10 11 11 11 11 12 12 12 13 13 14 13 13 13 13 11 10 9 8
25 25 25 25 26 26 27 28 28 28 29 29 29 29 29 28 27 26 25 24 24 23 22 21 20 19 19 19 19 20 20 20 20 19 19 19 19 19 19 18 17 17 17 16 16 16 16 16 16 15 15 15 15 14 14 14 13 13 12 11 10 10 10 10 10 10 10 10 10 11 11 11 12 12 12 13 13 13 13 13 12 12 11 9 8
25 25 25 25 26 26 27 27 28 28 28 28 27 26 26 25 25 24 23 23 22 21 20 19 18 18 19 19 19 20 20 19 19 19 19 19 19 19 18 18 17 17 17 17 17 16 16 16 15 15 14 14 14 13 13 12 12 11 11 10 9 9 9 9 10 10 10 10 10 10 11 11 11 12 12 12 12 13 13 13 12 12 11 10 9
25 25 25 26 26 27 27 26 26 26 26 25 25 24 23 23 22 22 21 20 20 19 19 18 18 18 19 19 19 20 19 19 19 19 19 19 19 19 18 18 17 17 17 17 16 16 15 15 15 14 14 14 13 12 12 11 11 10 10 10 9 9 9 10 10 10 10 10 10 11 11 11 11 11 11 11 12 12 12 12 12 12 11 11 9
25 25 25 25 25 25 24 24 23 23 23 23 22 21 21 20 20 19 19 18 18 18 19 19 19 19 19 19 20 20 20 20 19 19 19 19 19 19 18 18 18 17 17 16 15 15 15 14 14 14 13 13 12 12 11 11 10 10 10 10 10 10 10 10 11 11 11 11 11 11 11 11 11 11 11 11 11 11 11 11 11 11 11 11 10
24 24 23 23 22 22 21 21 21 21 21 20 19 18 18 18 18 18 18 18 19 19 19 19 19 19 19 20 20 20 20 20 20 20 19 19 19 19 18 17 17 16 16 15 14 14 14 13 13 13 12 12 12 11 11 11 11 10 10 11 11 11 11 12 12 12 12 12 12 12 12 12 12 11 11 11 10 10 10 10 10 11 10 10 10
22 21 21 20 20 19 19 19 19 18 18 17 17 17 17 17 17 18 18 19 19 20 20 20 20 19 20 20 20 20 20 20 19 19 18 18 18 17 17 16 16 15 15 14 14 14 13 13 13 12 12 12 11 11 11 11 11 11 11 11 12 12 12 13 13 13 13 13 13 12 12 12 12 12 11 11 10 10 9 9 9 10 9 9 9
20 19 19 19 18 18 18 17 17 16 16 16 17 17 18 18 18 19 19 19 20 20 20 20 20 20 20 20 20 20 19 19 19 18 17 17 16 16 16 15 15 15 15 14 14 14 13 13 13 12 12 12 12 11 11 11 11 11 12 12 12 13 13 13 13 13 13 13 13 13 12 12 12 12 11 11 10 10 9 9 9 9 9 8 8
19 18 18 18 17 17 17 16 17 17 17 18 18 19 19 19 20 20 20 20 21 21 21 21 21 20 20 20 20 19 19 18 18 17 17 16 15 15 15 15 15 15 15 15 14 14 14 13 13 13 12 12 12 12 11 11 12 12 12 13 13 13 13 13 13 13 13 13 13 13 12 12 12 12 11 11 10 10 9 9 8 8 8 8 8
18 17 17 16 16 17 17 17 18 19 19 19 20 20 20 21 21 22 22 22 22 23 22 22 22 21 21 20 20 19 19 18 18 17 16 16 15 15 15 15 15 15 15 15 15 14 14 13 13 13 13 13 12 12 12 12 12 13 13 13 14 14 14 14 14 13 13 13 13 13 12 12 12 11 11 11 10 9 9 8 8 8 8 7 7
16 16 15 15 16 16 17 18 18 19 20 20 21 21 22 22 23 23 24 24 24 24 23 23 22 22 22 21 20 20 19 19 18 17 17 16 16 16 15 15 15 15 15 15 15 14 14 14 13 13 13 13 13 13 13 13 13 13 13 13 14 14 14 14 14 14 13 13 12 12 12 12 11 11 11 10 10 9 9 8 8 7 7 7 7
Wind_Direction
242 243 244 245 246 248 251 254 257 261 265 269 273 277 280 283 287 293 296 296 299 302 304 305 306 307 306 306 305 305 306 308 309 309 309 310 311 311 310 308 306 304 304 305 306 306 306 305 306 306 305 304 302 301 301 302 303 302 301 301 301 301 299 296 296 296 296 296 296 296 295 293 291 289 288 286 286 284 281 277 273 268 264 260 256
243 244 244 245 247 249 251 253 256 260 264 268 271 275 279 283 286 291 293 294 297 300 302 303 305 305 304 304 303 303 304 306 307 308 308 309 309 310 310 308 306 304 303 304 305 305 305 305 306 306 305 303 302 301 301 302 303 302 301 300 300 300 299 297 296 296 296 296 297 297 298 296 293 292 291 289 288 286 283 279 274 269 265 262 258
245 244 245 245 247 249 252 254 256 259 262 266 270 273 277 281 284 288 290 292 295 298 301 302 303 303 302 301 301 301 302 304 305 304 305 306 307 308 309 308 305 303 302 302 304 304 304 305 306 306 306 304 302 301 301 302 303 302 301 300 300 300 299 297 296 295 295 296 296 297 298 298 296 296 295 293 290 287 284 281 276 271 267 263 259
246 247 247 246 248 249 251 253 255 258 261 265 268 272 276 280 283 286 288 291 294 297 300 301 302 301 301 300 300 301 302 303 303 303 303 304 305 306 306 306 304 302 301 302 303 303 303 304 306 307 306 305 303 302 302 302 302 302 301 300 300 299 299 297 296 295 295 295 296 297 298 297 297 298 299 296 294 290 286 283 279 274 268 264 260
248 249 247 245 248 250 250 252 254 256 260 264 267 270 274 278 281 285 287 289 293 296 299 300 301 300 300 301 302 303 303 304 303 303 303 303 303 304 304 303 302 301 301 302 302 302 301 303 306 307 307 306 304 303 302 302 302 302 301 300 300 299 298 296 295 295 294 294 296 297 297 297 298 300 301 300 297 294 290 285 281 276 271 265 260
249 249 248 246 249 251 251 252 253 256 260 263 266 270 272 276 281 284 284 287 292 295 297 299 300 301 301 302 303 303 304 304 305 305 304 303 302 303 303 302 301 301 301 301 301 301 300 301 304 307 307 306 305 303 302 302 302 302 301 301 300 298 297 296 295 295 294 294 295 297 298 297 298 300 301 301 300 298 295 290 284 278 273 267 261
250 250 250 251 250 250 251 251 253 256 259 261 265 268 270 276 282 281 280 285 291 293 296 298 300 301 301 302 303 303 304 305 306 306 305 302 301 302 303 301 300 300 300 300 300 300 299 299 302 305 306 305 304 303 302 302 302 301 301 301 300 298 296 295 295 295 294 295 296 297 297 297 297 298 300 301 301 300 298 293 288 282 276 269 263
249 249 251 251 250 249 250 250 252 256 258 261 264 266 269 277 281 278 278 285 289 292 296 298 299 300 301 302 302 303 305 306 307 307 306 305 304 303 303 301 299 299 299 299 300 299 298 297 299 303 304 303 302 302 301 301 301 301 302 301 300 298 296 294 294 294 295 295 296 297 297 297 297 297 299 300 300 301 299 296 291 286 280 273 265
250 249 249 250 248 248 249 249 251 254 257 260 262 266 273 277 275 275 280 285 289 292 295 296 298 299 301 302 302 304 306 307 308 308 307 306 305 304 303 301 299 299 298 298 300 300 298 297 298 301 302 301 300 300 300 301 301 301 301 300 299 298 296 295 294 294 295 295 296 297 297 297 297 298 298 299 300 300 300 297 292 288 282 275 268
250 249 248 249 247 246 246 247 248 252 256 259 262 269 274 272 270 276 281 284 288 292 294 295 297 299 300 301 302 304 306 308 308 307 306 305 305 305 303 301 299 299 299 300 301 300 299 298 298 299 300 300 300 300 300 300 300 300 300 299 298 297 296 295 295 294 295 296 296 297 297 296 297 298 299 299 299 300 300 297 294 290 285 277 270
251 250 249 249 247 245 245 245 246 251 256 259 264 271 272 267 270 277 281 284 288 290 291 294 296 298 299 299 301 304 306 307 307 306 307 306 306 305 304 302 300 299 300 301 301 300 299 298 298 299 299 299 300 300 300 300 300 299 299 298 297 296 296 295 295 294 295 296 296 296 296 295 297 299 299 299 300 300 300 298 295 292 287 279 271
252 252 251 249 246 244 244 243 245 250 256 261 265 268 267 266 271 276 280 284 287 288 289 292 294 296 297 297 300 303 305 305 304 304 306 306 306 305 303 302 301 300 300 300 300 300 299 298 298 298 298 298 300 300 300 299 300 299 298 297 296 296 295 294 295 295 295 296 296 296 295 295 297 298 299 300 300 300 301 300 296 292 288 281 273
254 253 252 249 245 242 241 241 243 250 257 263 265 265 264 266 271 275 280 283 285 286 288 291 293 295 295 296 299 302 304 304 302 301 302 303 305 305 302 300 299 299 299 299 300 300 300 299 298 298 297 298 299 300 299 299 299 299 298 298 297 296 295 294 295 295 296 296 296 295 296 296 297 298 299 300 301 301 302 301 298 293 288 283 276
257 257 255 251 247 243 240 239 245 254 260 263 264 263 263 267 271 276 280 283 283 285 288 290 292 293 293 294 297 301 303 303 300 299 300 302 303 304 301 297 296 297 297 298 299 300 300 300 298 297 297 298 299 299 298 298 298 298 298 298 297 296 296 296 296 296 296 296 295 295 296 297 297 298 299 300 300 301 301 301 299 295 289 284 279
258 258 257 253 249 244 240 242 251 258 260 261 261 261 264 268 272 276 280 281 282 285 287 290 292 292 292 293 295 299 302 302 300 299 300 300 302 303 300 295 294 296 297 297 297 299 300 299 298 297 297 298 299 298 298 297 296 297 297 297 297 297 297 297 298 297 297 297 297 296 297 298 298 298 299 300 301 302 302 301 300 296 291 286 279
259 258 256 252 247 243 241 246 254 258 257 259 260 261 264 269 272 276 278 280 282 285 288 290 291 291 291 292 294 298 301 301 300 299 299 299 300 301 299 294 292 295 296 296 296 297 299 298 297 297 297 298 298 298 297 296 295 295 296 296 297 297 298 298 298 297 297 298 298 298 299 300 300 299 299 301 303 304 303 301 300 298 293 287 280
262 260 255 249 244 241 241 245 252 255 255 259 263 264 266 268 271 275 278 280 282 285 287 290 290 290 291 291 293 296 299 301 300 299 299 299 298 298 296 293 292 293 295 297 297 297 298 297 296 297 298 298 298 298 297 296 294 294 295 295 296 298 298 299 298 298 298 298 298 299 300 301 301 300 300 301 304 306 304 303 302 300 295 289 282
265 261 254 247 242 241 241 245 251 254 257 263 267 268 267 268 271 276 279 281 283 285 288 290 290 290 291 292 293 296 298 300 299 298 297 297 297 296 294 292 292 293 295 296 296 296 297 296 296 297 297 297 298 298 296 294 293 294 294 295 297 298 299 300 299 299 299 299 299 300 301 302 302 301 302 303 305 307 306 305 304 302 296 290 284
267 262 255 248 243 240 241 246 252 255 258 264 268 269 269 271 275 278 281 283 284 285 288 290 290 290 292 293 294 295 297 298 298 297 296 294 294 293 292 291 292 293 294 296 296 295 295 295 295 296 297 298 298 297 295 293 293 293 294 295 296 298 299 300 300 300 300 300 301 302 303 304 303 303 304 305 307 309 309 307 306 303 298 292 286
267 261 255 248 242 240 243 249 253 253 255 261 267 270 273 276 279 281 283 285 286 287 289 291 291 290 292 294 295 296 297 297 297 296 295 292 291 291 290 289 290 291 294 295 295 294 294 294 296 297 297 297 297 295 293 291 291 293 294 295 295 297 299 300 300 301 301 301 302 303 304 304 304 305 306 307 309 310 310 310 309 306 300 294 288
264 258 251 245 243 244 246 250 251 249 251 259 267 274 278 279 280 283 285 287 288 289 291 292 292 292 293 295 296 296 296 297 296 296 295 293 290 289 288 288 288 290 293 293 293 293 293 295 296 297 297 297 296 294 292 290 290 292 294 293 294 297 300 301 301 301 301 302 303 304 304 305 306 307 309 310 311 312 312 312 312 309 303 295 289
261 253 248 247 248 248 245 245 248 250 254 260 270 279 282 282 283 285 287 288 289 290 291 292 292 293 295 296 296 296 296 296 296 296 296 294 291 289 287 287 288 290 292 291 291 292 293 295 296 296 296 296 296 294 292 291 290 291 292 291 293 297 300 301 301 302 302 303 304 305 305 307 309 310 311 312 313 314 314 314 313 311 306 298 291
258 250 249 250 248 244 242 244 250 256 258 264 276 284 285 284 286 287 287 288 289 290 292 293 294 295 295 296 296 297 296 296 296 296 295 295 293 290 288 288 289 289 289 288 290 292 293 294 295 295 296 296 296 295 293 292 290 290 290 291 293 297 299 301 302 302 303 305 306 306 307 309 311 312 313 314 315 316 316 317 316 314 310 303 295
253 249 251 249 244 242 242 247 255 263 267 271 279 284 285 285 287 288 287 289 291 292 294 295 295 296 296 296 296 297 297 297 297 296 296 296 295 293 291 291 290 287 286 288 291 292 293 293 294 295 295 296 296 295 292 290 289 289 290 291 293 296 299 301 302 303 304 306 307 307 309 311 313 314 315 316 318 319 320 320 319 317 314 309 300
251 250 251 249 246 245 246 250 259 268 273 276 279 281 283 285 286 287 287 289 292 294 296 297 297 297 297 297 297 297 297 297 297 298 298 297 296 295 294 292 289 286 286 288 291 291 292 294 295 295 295 295 295 293 290 288 288 289 289 290 293 296 299 301 302 304 306 307 308 309 310 312 314 316 317 319 320 322 324 324 323 322 320 315 305
252 252 251 248 246 246 249 256 264 269 274 277 279 281 283 284 284 285 287 290 293 295 297 298 299 298 297 297 297 297 297 297 298 299 299 298 298 297 295 291 288 287 288 290 291 291 292 293 294 294 294 294 293 290 287 287 287 288 290 291 293 296 299 301 302 304 307 308 309 309 311 314 316 318 320 321 323 326 327 327 327 327 325 321 312
251 251 251 249 247 249 255 262 266 269 273 277 279 281 282 281 282 285 289 292 295 297 298 298 298 298 297 297 297 297 298 298 299 299 299 299 298 298 295 291 289 289 290 292 293 293 293 293 293 293 293 294 292 288 287 287 287 288 291 293 294 296 299 300 302 304 306 308 309 310 312 315 318 320 322 323 324 329 331 330 331 331 330 327 318
252 253 255 253 252 254 259 264 267 270 274 276 278 279 279 279 283 288 291 294 296 297 297 297 297 298 298 298 298 298 299 299 299 299 299 298 297 297 294 292 291 292 293 294 294 294 294 294 294 293 293 292 290 287 286 287 288 289 291 293 294 296 298 301 303 304 306 308 309 311 313 316 319 321 324 324 326 330 332 332 333 336 335 332 324
258 258 257 255 254 257 261 264 268 271 273 274 275 277 279 283 287 290 293 295 297 297 298 298 298 299 299 299 299 299 300 300 300 299 298 297 295 294 293 291 292 293 294 294 295 295 295 294 294 294 293 291 288 286 285 287 289 291 291 292 294 296 299 302 304 305 307 309 311 313 315 317 320 322 325 326 327 331 334 334 336 339 339 336 330
260 259 256 255 256 258 261 263 266 270 271 272 275 279 283 287 289 291 293 296 297 298 299 299 299 300 299 299 300 300 300 300 300 299 298 296 294 293 292 291 292 293 293 294 295 295 294 294 294 294 293 291 288 285 285 288 290 291 290 291 294 297 300 302 304 306 308 311 313 314 316 319 321 323 326 327 328 332 336 336 337 340 342 340 335
260 258 257 257 257 259 261 263 267 270 272 274 278 281 285 288 290 292 294 295 297 299 300 300 300 300 299 300 301 302 302 301 300 299 298 295 293 292 291 291 291 291 291 293 294 294 294 294 295 295 294 292 288 286 286 288 290 290 289 291 294 297 300 302 304 306 309 312 313 315 318 320 322 324 327 329 329 332 336 338 339 342 345 344 340
261 260 262 263 261 261 263 266 269 272 274 277 281 283 284 287 290 292 294 295 297 299 300 301 300 300 300 300 301 302 302 301 300 298 296 294 293 292 291 290 290 289 290 292 293 294 294 294 294 293 292 291 289 288 288 289 289 289 289 291 294 296 299 301 304 307 310 312 314 316 318 321 323 326 328 330 332 333 336 340 342 345 348 350 348
263 267 269 267 264 264 267 269 271 273 275 278 280 282 284 286 288 290 292 293 296 298 300 301 300 300 301 301 301 301 301 299 298 296 295 293 293 292 291 291 289 289 290 291 292 293 293 293 293 292 291 291 291 291 290 290 290 290 290 291 293 295 297 300 304 307 310 312 314 316 318 321 324 327 329 332 334 335 337 340 343 346 349 354 355
268 272 271 268 267 268 270 271 273 274 277 279 281 283 284 286 287 289 290 292 295 298 299 300 300 300 301 301 301 300 299 297 296 295 294 294 293 292 292 292 290 289 290 290 291 291 291 292 292 291 291 292 293 294 293 292 292 291 290 290 292 293 296 300 304 307 310 312 313 315 318 321 324 327 329 332 335 337 337 339 343 347 350 354 358
272 273 270 269 270 271 272 273 275 277 279 281 283 284 285 286 287 288 289 292 295 297 298 298 298 299 299 300 299 298 296 296 296 295 295 295 294 292 291 291 290 290 289 290 290 290 290 290 291 290 290 292 293 295 295 294 293 292 291 290 291 293 296 300 303 306 309 311 312 314 317 320 324 327 329 331 334 338 339 339 341 346 350 353 358
271 271 271 272 272 273 273 274 276 278 280 282 284 284 285 286 287 288 289 291 293 295 295 295 296 297 297 297 297 296 295 295 295 295 296 296 294 292 291 290 290 290 289 289 288 288 288 289 290 290 290 291 293 295 295 295 295 294 292 290 291 293 297 300 302 304 307 309 311 313 316 320 323 327 329 331 333 336 340 340 339 343 350 354 357
271 271 272 273 273 274 274 275 277 279 281 282 284 285 285 286 287 288 289 291 292 293 293 294 295 295 295 294 293 293 294 294 294 295 297 297 295 294 293 291 290 290 289 287 286 286 287 289 290 290 291 292 293 295 295 296 296 296 293 292 292 294 296 298 300 303 305 308 310 313 316 319 323 327 329 331 333 335 338 341 340 341 347 353 356
273 272 272 273 274 275 275 275 277 279 280 282 284 285 286 287 287 288 290 291 292 292 292 293 293 293 291 291 291 291 291 292 293 294 296 297 295 294 292 291 291 290 288 287 286 286 287 288 289 290 291 291 293 294 294 295 296 295 294 294 294 295 296 297 299 302 304 307 311 314 317 320 324 327 330 332 334 335 337 340 342 340 343 350 355
274 273 272 273 275 275 275 275 277 279 281 282 284 286 287 288 289 290 291 291 291 291 291 291 290 289 288 288 288 288 288 289 290 292 293 294 293 292 292 291 291 290 288 288 287 287 287 287 288 289 290 290 291 292 293 294 295 295 296 295 295 295 296 297 299 302 304 308 312 316 319 322 324 327 330 333 335 336 336 338 342 341 340 345 351
275 274 273 274 275 275 274 276 278 280 282 284 285 286 287 288 289 290 290 290 290 290 290 289 287 286 285 284 284 285 285 286 288 290 290 290 290 291 291 291 290 289 288 288 288 288 287 286 286 288 289 290 291 291 292 293 294 294 295 295 295 296 296 297 300 303 305 310 314 318 321 323 325 328 331 334 336 337 337 337 340 343 341 341 345
276 276 275 275 275 275 276 278 280 282 284 285 286 287 288 288 289 288 288 288 289 290 290 288 286 285 283 283 284 285 286 287 288 289 288 287 288 289 289 290 289 288 287 287 287 286 285 284 284 286 288 290 290 290 291 292 292 292 293 293 293 294 295 297 300 303 306 311 315 318 320 324 327 329 332 334 336 338 338 338 340 342 343 342 342
275 275 275 275 275 277 278 280 281 283 285 286 287 287 288 287 287 287 288 288 289 289 288 286 284 283 282 283 285 286 287 288 289 288 287 287 287 287 287 287 287 287 287 287 286 284 283 282 283 284 286 288 290 291 291 290 290 290 290 289 289 290 293 296 299 303 307 311 314 316 319 323 326 329 332 335 337 338 339 340 340 341 343 345 343
274 274 274 275 276 278 280 281 282 284 285 286 287 287 287 287 287 287 287 287 287 286 286 285 283 283 283 284 286 287 288 289 289 288 287 286 285 285 285 285 285 286 286 286 285 283 282 282 282 283 285 287 289 290 290 289 288 288 287 287 287 289 292 295 299 302 306 309 311 314 316 319 322 326 331 335 337 338 340 341 341 341 342 344 345
274 274 275 276 278 280 281 281 283 284 284 285 286 287 287 287 287 286 286 285 285 285 285 284 284 283 283 285 286 287 288 288 288 287 285 285 284 283 283 283 283 284 284 284 283 282 282 281 281 282 284 286 287 288 287 286 285 285 285 286 288 290 292 294 297 300 303 306 309 311 312 314 317 322 327 331 333 335 338 341 341 342 342 342 343
275 275 276 277 279 280 281 282 283 283 284 285 287 287 288 287 287 286 285 285 284 284 285 285 284 283 283 284 285 286 287 287 287 285 284 283 281 281 280 280 281 282 282 281 280 279 279 280 280 281 282 283 283 283 283 282 282 282 283 284 287 290 292 293 294 297 300 302 304 306 308 310 313 317 321 324 327 329 333 336 339 341 342 342 342
276 276 277 278 278 279 280 282 283 284 285 286 286 286 287 286 286 285 285 284 283 284 285 284 284 283 283 284 285 286 286 286 286 285 284 281 279 278 278 278 279 280 279 278 277 276 277 278 279 280 280 279 279 279 279 279 279 279 280 282 284 286 289 292 293 295 297 298 300 302 304 306 309 312 315 317 319 322 326 330 333 338 341 342 341
275 275 276 276 277 278 280 282 283 283 284 284 285 286 286 286 285 285 284 284 284 285 285 284 283 283 284 285 285 285 285 285 285 286 285 282 278 276 276 276 277 277 276 275 274 275 277 279 279 279 278 276 275 275 276 277 278 279 280 281 281 282 286 289 292 294 295 295 297 299 301 303 305 308 310 311 312 316 319 322 325 330 334 338 340
273 273 274 275 276 277 279 281 281 280 281 282 283 285 285 285 285 284 284 284 285 285 285 284 284 284 284 284 284 283 282 283 284 285 284 282 278 275 274 275 276 275 275 274 274 275 277 278 278 277 276 274 273 273 274 277 279 281 281 282 283 283 285 287 289 291 293 294 294 296 298 300 302 305 307 307 308 310 313 314 316 320 324 329 335
272 272 273 274 275 275 276 277 278 278 280 281 282 283 284 285 285 285 285 285 284 284 284 284 283 282 282 282 282 281 280 281 282 283 282 280 277 274 273 274 274 274 274 274 274 274 275 275 275 273 272 270 270 271 274 277 280 281 282 284 284 285 286 287 288 289 291 292 292 293 295 297 299 302 304 305 305 306 307 307 307 310 313 319 326
271 271 271 272 273 274 275 276 277 279 280 282 282 283 284 284 284 285 285 284 284 283 282 282 281 280 279 279 279 278 278 279 280 281 280 278 275 273 272 272 273 273 273 273 273 273 273 273 272 270 268 267 267 270 273 276 280 282 284 285 285 285 285 286 287 288 289 290 290 290 292 294 296 298 300 302 302 303 304 304 302 302 304 308 314
272 272 272 273 274 275 276 277 279 280 281 282 283 284 284 285 285 285 284 283 282 281 281 280 279 278 277 276 276 276 276 277 278 278 277 275 273 271 271 271 271 270 270 271 272 272 272 270 268 266 264 264 266 268 271 275 279 282 285 287 287 285 284 283 285 286 286 287 288 287 288 290 292 293 295 298 300 301 302 301 299 298 297 299 301